SCP
0 0 0 0 0 0 0 0 0 0 1 1 2 4 5 6 6 6 6 5 4 3 3 3 3 2 2 2 2 2 2 2 2 1 2 2 2 2 2 1 1 1 1 1
0 0 0 0 0 0 0 0 0 1 1 2 4 5 6 6 6 6 5 4 4 4 3 3 2 2 2 2 2 2 2 2 1 1 1 1 1 1 1 1 1 1 1 1
0 0 0 0 0 1 1 1 1 1 2 4 5 6 6 6 6 6 5 4 5 4 3 3 2 2 2 2 2 2 2 2 1 1 1 1 1 1 1 1 1 2 2 2
0 0 0 0 0 1 2 2 2 3 5 6 7 6 6 6 6 6 5 5 5 4 4 3 3 3 3 3 3 2 2 2 2 1 1 1 1 1 1 1 1 2 2 2
0 0 0 0 1 2 3 3 3 4 6 7 7 7 6 6 5 6 6 5 5 4 4 4 4 4 3 3 3 2 2 2 2 2 2 1 1 1 1 1 1 2 2 2
0 0 0 1 1 2 3 3 3 4 5 6 6 6 5 5 5 5 6 6 6 6 5 4 3 3 3 2 2 2 2 2 2 2 2 1 1 1 1 2 2 1 2 2
0 0 0 1 2 2 3 3 3 3 4 5 5 5 6 6 7 6 6 7 8 6 4 3 2 2 2 1 1 1 1 1 1 1 1 1 1 1 1 1 1 1 1 2
0 0 1 1 2 2 2 3 3 3 4 5 7 7 8 8 8 7 6 7 7 5 4 3 2 2 1 1 1 1 1 1 1 1 1 1 1 1 1 1 1 1 1 1
0 0 1 1 2 2 3 3 3 3 5 7 9 9 9 8 8 7 7 6 5 5 4 3 3 2 2 2 1 1 1 1 1 1 1 1 1 1 1 1 1 0 0 0
1 1 1 2 2 3 3 3 4 5 6 9 10 9 7 6 6 6 6 5 5 5 5 4 3 2 2 2 2 2 1 1 1 1 1 1 1 1 1 1 1 0 0 0
1 1 1 1 2 3 4 4 4 5 6 7 7 5 4 4 4 5 5 5 6 7 7 6 5 4 4 4 3 3 2 2 2 1 1 1 1 0 0 1 0 0 0 0
1 1 1 1 3 3 3 4 4 4 4 4 3 2 2 3 4 4 5 7 9 10 10 8 7 7 6 5 4 3 2 2 2 2 1 1 0 0 0 0 0 0 0 0
1 1 1 2 3 3 3 4 4 3 2 2 1 1 1 2 3 4 5 8 9 9 8 6 5 6 8 7 4 2 1 2 2 2 2 1 0 0 0 0 0 0 0 0
1 1 1 1 2 2 2 3 4 3 1 1 1 1 1 1 2 3 4 5 5 5 4 3 2 4 5 5 3 1 1 1 2 2 2 1 0 0 0 0 0 0 0 0
1 1 1 1 1 1 2 3 4 2 1 1 0 0 1 1 1 1 2 2 2 2 1 1 1 1 2 2 2 1 1 1 1 1 1 1 0 0 0 0 0 0 0 0
1 1 1 1 1 1 1 2 3 2 1 0 0 0 0 0 1 1 1 1 1 1 1 1 0 0 1 1 1 1 1 0 0 0 0 0 0 0 0 0 0 0 0 0
1 1 1 1 1 0 1 1 1 1 1 1 0 0 0 0 0 0 0 0 0 0 0 0 0 0 0 0 1 1 0 0 0 0 0 0 0 0 0 0 0 0 0 0
1 1 1 1 1 1 0 0 0 0 1 1 1 0 0 0 0 0 0 0 0 0 0 0 0 0 0 0 0 0 0 0 0 0 0 0 0 0 0 0 0 0 0 0
1 1 1 1 1 1 0 0 0 1 1 1 1 0 0 0 0 0 0 0 0 0 0 0 0 0 0 0 0 0 0 0 0 0 0 0 0 0 0 0 0 0 0 0
1 1 1 1 0 0 0 0 0 1 1 1 1 0 0 0 0 0 0 0 0 0 0 0 0 0 0 0 0 0 0 0 0 0 0 0 0 0 0 0 0 0 0 0
1 1 1 0 0 0 0 0 0 1 1 1 0 0 0 0 0 0 0 0 0 0 0 0 0 0 0 0 0 0 0 0 0 0 0 0 0 0 0 0 0 0 0 0
1 1 0 0 0 0 0 0 0 1 1 1 0 0 0 0 0 0 0 0 0 0 0 0 0 0 0 0 0 0 0 0 0 0 0 0 0 0 0 0 0 0 0 0
1 1 0 0 0 0 0 0 0 1 1 1 0 0 0 0 0 0 0 0 0 0 0 0 0 0 0 0 0 0 0 0 0 0 0 0 0 0 0 0 0 0 0 0
0 0 0 0 0 0 0 0 0 0 0 0 0 0 0 0 0 0 0 0 0 0 0 0 0 0 0 0 0 0 0 0 0 0 0 0 0 0 0 0 0 0 0 0
0 0 0 0 0 0 0 0 0 0 0 0 0 0 0 0 0 0 0 0 0 0 0 0 0 0 0 0 0 0 0 0 0 0 0 0 0 0 0 0 0 0 0 0
0 0 0 0 0 0 0 0 0 0 0 0 0 0 0 0 0 0 0 0 0 0 0 0 0 0 0 0 0 0 0 0 0 0 0 0 0 0 0 0 0 0 0 0
0 0 0 0 0 0 0 0 0 0 0 0 0 0 0 0 0 0 0 0 0 0 0 0 0 0 0 0 0 0 0 0 0 0 0 0 0 0 0 0 0 0 0 0
Wind_Speed
5 5 2 1 3 2 4 8 9 9 9 11 10 10 11 11 11 12 11 10 10 9 8 8 7 6 6 6 5 6 6 5 5 4 4 3 3 3 3 3 3 4 4 4
1 2 3 2 4 4 4 4 6 6 6 7 7 7 8 10 13 13 12 12 11 10 9 9 8 8 7 6 6 6 6 5 5 4 4 4 3 3 3 3 3 4 4 4
1 2 5 3 4 3 5 5 6 8 8 7 7 10 12 11 11 12 12 11 11 10 10 9 8 8 7 6 6 6 6 5 5 5 5 4 4 4 4 4 4 4 4 4
2 2 4 10 5 2 2 4 1 4 7 10 9 6 4 7 10 10 9 10 9 8 7 6 6 6 6 6 6 6 6 5 6 6 5 5 5 4 4 4 4 4 5 5
4 3 5 7 5 1 1 3 3 5 8 9 10 9 5 2 7 9 8 8 8 8 7 6 7 7 7 6 5 6 6 6 6 6 6 6 5 5 4 5 5 4 5 6
4 4 6 7 5 2 5 1 3 4 9 9 7 6 3 2 6 8 7 7 8 8 7 7 6 6 7 6 5 5 5 5 5 6 7 7 6 5 4 5 5 5 6 6
4 4 6 6 5 3 3 6 3 4 7 6 4 6 7 7 7 8 8 8 7 8 7 5 5 7 7 5 4 4 5 5 5 5 6 6 6 5 6 6 6 6 7 5
4 4 7 5 4 3 5 3 3 5 5 7 9 9 9 9 9 9 9 8 7 8 6 4 5 6 6 4 3 4 5 6 5 5 5 6 6 6 6 6 7 7 7 6
6 6 4 1 3 2 4 5 4 5 6 11 10 9 8 8 7 7 8 7 7 8 7 5 4 5 5 3 4 6 6 5 5 5 5 6 6 6 6 5 5 5 5 6
3 1 2 4 5 5 5 5 4 6 8 10 10 9 8 7 6 6 6 7 6 7 7 4 3 4 3 3 5 6 6 5 5 5 5 5 4 4 5 5 5 6 6 6
2 0 3 5 4 4 6 8 8 7 7 7 10 8 7 6 6 6 7 6 6 6 5 4 3 4 3 3 5 6 6 5 5 5 5 5 5 3 3 2 4 6 6 6
3 4 3 1 1 4 7 6 7 8 8 6 7 8 8 7 5 6 6 6 6 6 5 4 3 3 3 3 4 6 5 5 4 5 5 6 6 6 10 7 8 8 8 7
4 3 4 3 3 4 6 7 7 8 8 7 6 7 8 6 5 6 6 6 6 5 4 4 4 3 2 3 4 5 5 5 5 5 5 6 6 7 6 7 11 11 10 11
3 4 3 2 3 4 6 7 8 8 7 7 7 7 8 7 6 6 6 4 5 5 4 3 4 3 2 3 4 5 5 6 6 5 5 5 6 6 6 7 6 5 6 9
2 4 4 3 4 4 5 7 9 8 6 7 7 7 7 7 6 5 5 5 5 5 4 4 3 2 2 4 5 5 5 5 5 5 5 5 6 6 6 6 6 6 5 5
3 3 5 5 4 4 6 8 9 7 7 6 6 6 6 6 6 6 5 4 5 4 3 3 3 2 2 4 5 4 4 9 8 6 6 5 5 6 6 6 6 6 5 5
5 5 5 5 5 5 5 6 7 7 7 7 7 7 7 7 6 5 5 4 5 4 3 3 3 3 3 4 4 4 4 7 10 6 5 5 5 5 6 6 6 5 4 5
6 6 7 8 8 7 6 6 7 8 8 7 8 7 7 6 6 5 4 5 5 4 3 3 3 3 4 4 4 4 4 4 4 5 5 5 5 5 5 5 6 6 4 4
4 5 6 7 8 8 8 7 7 7 8 8 8 7 6 6 5 5 5 5 5 4 2 3 5 4 4 4 5 3 4 4 4 4 4 6 6 5 5 5 5 5 5 4
3 5 6 7 7 8 8 8 8 8 7 8 8 8 7 6 5 5 5 4 2 2 3 4 4 3 3 4 5 3 4 4 4 4 4 5 5 5 5 5 5 5 5 5
4 6 7 8 8 8 8 8 8 8 7 7 8 8 7 6 5 5 5 3 2 3 4 5 3 3 3 3 5 3 3 4 4 4 4 4 5 5 5 5 5 5 5 5
4 6 7 8 9 8 7 7 7 8 7 6 6 7 7 6 5 4 3 3 3 4 3 3 3 3 4 4 3 3 3 3 3 4 4 4 5 5 5 6 5 5 6 5
5 6 7 8 8 8 7 6 6 7 7 7 6 6 6 5 4 4 3 2 3 5 3 2 4 6 5 3 2 3 3 4 3 4 4 4 5 5 5 6 6 6 6 6
6 7 7 7 7 8 7 5 5 5 6 5 5 5 4 4 2 2 2 5 6 5 3 3 6 6 4 2 2 3 3 3 3 4 4 4 4 4 5 5 5 5 6 7
6 6 7 7 6 5 5 6 6 5 5 3 3 3 3 3 3 3 3 4 6 5 3 3 5 4 2 2 2 3 3 3 4 4 4 4 4 4 5 5 5 5 6 6
6 5 5 4 4 4 4 4 4 4 4 3 2 2 2 2 3 3 3 3 4 4 3 2 2 2 1 2 2 2 3 3 3 3 4 4 5 5 5 5 6 5 6 6
6 5 5 4 3 3 4 4 4 3 3 3 2 1 2 3 3 3 3 3 2 2 2 1 1 1 2 2 2 3 3 3 3 4 4 4 4 5 5 6 5 5 5 5
Wind_Direction
184 197 171 234 285 261 192 191 188 214 200 212 203 179 170 163 153 155 163 164 164 166 166 166 163 165 164 166 163 158 154 160 170 166 155 146 139 137 131 133 144 143 137 137
44 38 56 340 303 293 265 221 204 182 218 219 179 152 159 165 159 162 169 169 167 165 165 166 167 165 164 164 163 156 156 162 157 145 140 137 136 130 124 123 120 116 122 128
247 357 40 295 250 263 282 262 197 201 214 164 151 164 171 167 161 164 167 164 164 166 169 168 168 164 164 163 157 152 153 152 146 143 139 139 136 126 126 123 115 113 114 118
140 81 227 245 249 222 285 310 265 167 167 158 155 151 147 150 153 156 156 155 159 157 151 149 149 149 150 145 146 148 147 148 147 143 141 137 131 129 124 116 115 118 119 119
125 175 261 288 293 253 164 330 334 134 137 129 120 86 44 90 137 140 140 143 140 136 135 133 135 138 134 136 140 142 147 151 152 148 144 139 134 128 123 117 112 111 113 115
132 162 219 247 277 275 99 354 308 139 145 146 125 119 186 158 128 124 119 119 121 119 113 116 124 124 123 131 136 146 154 153 149 149 149 148 142 134 123 118 115 109 103 110
158 193 247 262 297 51 127 219 254 151 150 144 135 152 150 124 109 112 108 109 113 112 112 118 123 120 123 129 140 146 137 131 129 132 136 135 129 126 122 117 112 107 105 101
155 181 245 294 34 112 193 188 127 112 118 112 110 113 119 113 111 113 109 107 111 109 104 107 117 123 125 135 141 131 126 125 124 125 128 127 123 119 120 124 120 115 107 97
178 201 244 315 115 135 131 121 124 120 124 122 119 119 117 112 111 111 115 114 111 114 112 99 101 117 128 133 131 129 124 125 125 122 121 127 130 130 126 125 128 126 123 119
89 27 15 46 67 67 81 98 102 114 121 122 120 122 117 115 110 105 103 110 112 112 111 108 104 102 110 124 131 133 132 131 129 131 126 121 123 133 138 141 142 139 139 135
88 245 34 24 42 68 71 81 87 89 95 110 117 118 117 115 111 108 105 103 107 112 117 118 110 101 99 113 128 131 133 134 132 131 131 121 102 83 118 128 156 151 152 149
199 219 157 210 0 81 85 86 98 99 86 89 107 114 110 107 104 103 105 107 107 108 111 116 116 116 114 124 135 138 139 141 140 135 132 128 120 89 55 70 92 106 119 130
176 177 149 156 89 82 98 102 100 105 109 105 99 107 107 104 99 98 99 105 112 113 113 119 122 118 121 132 133 142 149 150 143 141 142 140 138 131 114 73 70 84 106 119
137 117 103 114 123 101 101 108 103 94 90 99 105 105 103 100 97 98 103 108 109 105 104 108 111 112 116 127 133 142 146 146 140 140 141 139 138 136 136 134 123 93 84 109
143 139 156 142 116 108 110 114 106 100 97 91 98 105 109 111 109 105 105 108 106 101 100 102 103 98 112 127 130 135 136 136 134 132 133 133 132 130 128 128 128 126 117 107
172 131 124 120 125 127 118 118 122 124 118 109 107 111 114 113 109 103 99 102 111 110 107 107 107 105 109 121 125 126 133 139 137 136 135 134 134 133 133 135 136 141 146 149
156 157 146 145 144 139 137 137 136 135 128 123 122 120 116 112 107 107 106 103 106 106 106 110 112 107 105 113 118 120 122 136 137 134 135 137 138 139 142 144 146 148 155 166
168 170 163 161 158 148 143 135 135 135 137 135 129 124 125 129 133 134 129 117 109 100 94 100 107 110 105 105 110 114 119 122 126 129 130 133 135 136 138 143 147 148 150 157
149 150 145 142 146 144 141 141 141 137 134 133 130 129 129 130 133 132 127 124 127 129 136 130 128 119 115 118 118 111 115 118 119 123 131 138 136 136 140 142 144 147 150 153
101 121 126 124 124 128 131 132 132 130 133 132 129 128 129 130 134 132 126 122 138 150 146 142 140 134 136 140 135 126 133 139 140 141 141 141 143 147 151 154 156 158 162 166
97 106 115 120 119 120 125 129 130 129 130 132 134 137 136 135 135 134 132 129 136 136 143 146 142 140 146 149 148 143 146 146 145 147 150 150 151 155 158 161 164 170 173 175
110 112 112 114 115 113 114 117 122 125 126 126 128 130 131 132 131 125 129 146 157 148 139 140 142 149 150 145 145 146 150 150 150 152 157 159 160 164 167 169 172 177 180 182
103 108 111 115 118 118 113 114 123 130 131 132 134 137 140 143 147 146 153 175 156 154 146 156 164 162 160 152 145 151 156 158 160 166 168 169 170 170 173 178 183 184 186 190
97 101 104 109 112 115 117 120 123 125 126 126 130 135 139 138 137 160 159 162 161 155 153 167 171 169 159 146 150 158 167 170 172 174 175 174 175 175 176 179 185 190 193 196
98 99 104 110 113 117 119 120 113 112 115 120 128 132 138 147 153 165 154 153 156 149 148 170 175 173 165 153 162 169 175 179 180 176 177 177 179 183 187 189 191 191 195 200
91 91 93 102 112 118 121 121 119 125 125 121 119 123 125 128 135 135 135 145 151 151 154 168 180 172 167 174 180 181 184 183 182 185 186 186 187 187 190 195 197 198 201 205
80 82 84 85 86 97 105 112 117 121 126 129 126 115 117 122 127 136 140 142 146 149 163 185 194 199 210 215 220 215 210 204 199 199 199 197 194 197 201 201 201 203 203 204